| time (UTC) | temp C | wind direction | speed KPH | gust KPH | rain 1hr cm | rain 24hr cm | rain mn cm | humidity % | barometer mb |
| 20260509000724 | 19 | 159 | 0.0 | 0.0 | 0.00 | 0.00 | 0.00 | 26 | 1012.0 |
| 20260509000223 | 19 | 159 | 0.0 | 0.0 | 0.00 | 0.00 | 0.00 | 26 | 1012.2 |
| 20260508235722 | 19 | 159 | 0.0 | 0.0 | 0.00 | 0.00 | 0.00 | 26 | 1012.2 |
| 20260508235221 | 20 | 159 | 0.0 | 3.2 | 0.00 | 0.00 | 0.00 | 25 | 1012.3 |
| 20260508234218 | 20 | 159 | 1.6 | 3.2 | 0.00 | 0.00 | 0.00 | 24 | 1012.4 |
| 20260508233718 | 20 | 159 | 1.6 | 6.4 | 0.00 | 0.00 | 0.00 | 25 | 1012.5 |
| 20260508233216 | 20 | 159 | 1.6 | 6.4 | 0.00 | 0.00 | 0.00 | 25 | 1012.4 |
| 20260508232716 | 20 | 161 | 0.0 | 3.2 | 0.00 | 0.00 | 0.00 | 24 | 1012.4 |
| 20260508231714 | 20 | 148 | 1.6 | 4.8 | 0.00 | 0.00 | 0.00 | 24 | 1012.4 |
| 20260508231213 | 20 | 148 | 1.6 | 4.8 | 0.00 | 0.00 | 0.00 | 24 | 1012.4 |
| 20260508230714 | 20 | 145 | 1.6 | 4.8 | 0.00 | 0.00 | 0.00 | 24 | 1012.4 |
| 20260508230214 | 20 | 149 | 1.6 | 4.8 | 0.00 | 0.00 | 0.00 | 24 | 1012.4 |
| 20260508225213 | 20 | 198 | 1.6 | 6.4 | 0.00 | 0.00 | 0.00 | 24 | 1012.4 |
| 20260508224709 | 20 | 185 | 1.6 | 8.0 | 0.00 | 0.00 | 0.00 | 24 | 1012.4 |
| 20260508224209 | 20 | 140 | 1.6 | 8.0 | 0.00 | 0.00 | 0.00 | 23 | 1012.3 |
| 20260508223710 | 20 | 172 | 1.6 | 6.4 | 0.00 | 0.00 | 0.00 | 25 | 1012.4 |
| 20260508222709 | 20 | 216 | 1.6 | 3.2 | 0.00 | 0.00 | 0.00 | 24 | 1012.5 |
| 20260508222209 | 20 | 132 | 1.6 | 3.2 | 0.00 | 0.00 | 0.00 | 25 | 1012.4 |
| 20260508221709 | 20 | 130 | 1.6 | 3.2 | 0.00 | 0.00 | 0.00 | 24 | 1012.4 |
| 20260508220710 | 20 | 103 | 1.6 | 4.8 | 0.00 | 0.00 | 0.00 | 26 | 1012.4 |
| 20260508220206 | 20 | 103 | 1.6 | 4.8 | 0.00 | 0.00 | 0.00 | 25 | 1012.4 |
| 20260508214705 | 20 | 145 | 3.2 | 11.3 | 0.00 | 0.00 | 0.00 | 25 | 1012.0 |
| 20260508214206 | 20 | 80 | 1.6 | 11.3 | 0.00 | 0.00 | 0.00 | 23 | 1012.0 |
| 20260508213206 | 21 | 136 | 1.6 | 8.0 | 0.00 | 0.00 | 0.00 | 24 | 1012.3 |
| 20260508212705 | 21 | 159 | 1.6 | 8.0 | 0.00 | 0.00 | 0.00 | 24 | 1012.3 |
| 20260508212206 | 21 | 155 | 1.6 | 6.4 | 0.00 | 0.00 | 0.00 | 24 | 1012.3 |
| 20260508211705 | 21 | 121 | 1.6 | 4.8 | 0.00 | 0.00 | 0.00 | 26 | 1012.5 |
| 20260508211205 | 21 | 142 | 1.6 | 4.8 | 0.00 | 0.00 | 0.00 | 24 | 1012.7 |
| 20260508210705 | 21 | 138 | 1.6 | 6.4 | 0.00 | 0.00 | 0.00 | 24 | 1012.9 |
| 20260508210206 | 21 | 167 | 1.6 | 6.4 | 0.00 | 0.00 | 0.00 | 24 | 1012.9 |
| 20260508205705 | 21 | 178 | 1.6 | 6.4 | 0.00 | 0.00 | 0.00 | 23 | 1013.0 |
| 20260508204706 | 21 | 99 | 1.6 | 4.8 | 0.00 | 0.00 | 0.00 | 23 | 1013.0 |
| 20260508204205 | 21 | 153 | 1.6 | 6.4 | 0.00 | 0.00 | 0.00 | 25 | 1013.3 |
| 20260508203705 | 21 | 142 | 1.6 | 9.7 | 0.00 | 0.00 | 0.00 | 24 | 1013.3 |
| 20260508203206 | 21 | 118 | 1.6 | 9.7 | 0.00 | 0.00 | 0.00 | 25 | 1013.4 |
| 20260508202712 | 22 | 128 | 1.6 | 9.7 | 0.00 | 0.00 | 0.00 | 24 | 1013.5 |
| 20260508201706 | 22 | 75 | 1.6 | 6.4 | 0.00 | 0.00 | 0.00 | 23 | 1013.4 |
| 20260508201204 | 22 | 149 | 1.6 | 4.8 | 0.00 | 0.00 | 0.00 | 22 | 1013.5 |
| 20260508200703 | 22 | 220 | 1.6 | 4.8 | 0.00 | 0.00 | 0.00 | 22 | 1013.5 |
| 20260508200201 | 22 | 207 | 1.6 | 8.0 | 0.00 | 0.00 | 0.00 | 25 | 1013.3 |
| 20260508195201 | 22 | 206 | 1.6 | 6.4 | 0.00 | 0.00 | 0.00 | 24 | 1013.5 |
| 20260508194701 | 21 | 109 | 1.6 | 6.4 | 0.00 | 0.00 | 0.00 | 25 | 1013.4 |
| 20260508194201 | 21 | 142 | 1.6 | 8.0 | 0.00 | 0.00 | 0.00 | 25 | 1013.5 |
| 20260508193707 | 21 | 103 | 1.6 | 8.0 | 0.00 | 0.00 | 0.00 | 24 | 1013.5 |
| 20260508193201 | 21 | 185 | 1.6 | 4.8 | 0.00 | 0.00 | 0.00 | 26 | 1013.5 |
| 20260508192700 | 21 | 314 | 1.6 | 4.8 | 0.00 | 0.00 | 0.00 | 26 | 1013.6 |
| 20260508192157 | 21 | 211 | 1.6 | 8.0 | 0.00 | 0.00 | 0.00 | 26 | 1013.6 |
| 20260508191657 | 21 | 55 | 1.6 | 8.0 | 0.00 | 0.00 | 0.00 | 27 | 1013.6 |
| 20260508191155 | 21 | 197 | 1.6 | 8.0 | 0.00 | 0.00 | 0.00 | 24 | 1013.8 |
| 20260508190654 | 21 | 71 | 1.6 | 9.7 | 0.00 | 0.00 | 0.00 | 24 | 1013.9 |
| 20260508190151 | 21 | 156 | 3.2 | 9.7 | 0.00 | 0.00 | 0.00 | 24 | 1014.0 |
| 20260508185648 | 21 | 219 | 3.2 | 6.4 | 0.00 | 0.00 | 0.00 | 23 | 1014.0 |
| 20260508185145 | 22 | 165 | 1.6 | 6.4 | 0.00 | 0.00 | 0.00 | 24 | 1014.1 |
| 20260508184645 | 22 | 86 | 1.6 | 6.4 | 0.00 | 0.00 | 0.00 | 25 | 1014.2 |
| 20260508183140 | 22 | 159 | 1.6 | 6.4 | 0.00 | 0.00 | 0.00 | 24 | 1014.5 |
| 20260508182637 | 22 | 225 | 1.6 | 6.4 | 0.00 | 0.00 | 0.00 | 25 | 1014.5 |
| 20260508182135 | 22 | 75 | 1.6 | 8.0 | 0.00 | 0.00 | 0.00 | 22 | 1014.8 |
| 20260508181634 | 22 | 161 | 3.2 | 8.0 | 0.00 | 0.00 | 0.00 | 22 | 1014.9 |
| 20260508181134 | 22 | 153 | 3.2 | 9.7 | 0.00 | 0.00 | 0.00 | 23 | 1015.0 |
| 20260508180634 | 22 | 154 | 3.2 | 9.7 | 0.00 | 0.00 | 0.00 | 22 | 1015.1 |
| 20260508180134 | 22 | 111 | 1.6 | 9.7 | 0.00 | 0.00 | 0.00 | 21 | 1015.2 |
| 20260508175631 | 23 | 165 | 1.6 | 9.7 | 0.00 | 0.00 | 0.00 | 20 | 1015.3 |
| 20260508175131 | 23 | 210 | 1.6 | 8.0 | 0.00 | 0.00 | 0.00 | 22 | 1015.2 |
| 20260508174631 | 23 | 209 | 1.6 | 8.0 | 0.00 | 0.00 | 0.00 | 21 | 1015.5 |
| 20260508174130 | 22 | 198 | 1.6 | 4.8 | 0.00 | 0.00 | 0.00 | 19 | 1015.6 |
| 20260508173629 | 22 | 190 | 1.6 | 6.4 | 0.00 | 0.00 | 0.00 | 23 | 1015.6 |
| 20260508173125 | 22 | 191 | 1.6 | 6.4 | 0.00 | 0.00 | 0.00 | 23 | 1015.7 |
| 20260508172619 | 22 | 123 | 1.6 | 4.8 | 0.00 | 0.00 | 0.00 | 25 | 1015.8 |
| 20260508172112 | 22 | 121 | 1.6 | 8.0 | 0.00 | 0.00 | 0.00 | 24 | 1015.9 |
| 20260508171612 | 22 | 123 | 1.6 | 8.0 | 0.00 | 0.00 | 0.00 | 28 | 1016.0 |
| 20260508171109 | 22 | 248 | 1.6 | 6.4 | 0.00 | 0.00 | 0.00 | 26 | 1016.1 |
| 20260508170609 | 22 | 248 | 1.6 | 6.4 | 0.00 | 0.00 | 0.00 | 25 | 1016.1 |
| 20260508170108 | 22 | 119 | 3.2 | 6.4 | 0.00 | 0.00 | 0.00 | 25 | 1016.3 |
| 20260508165106 | 22 | 183 | 3.2 | 6.4 | 0.00 | 0.00 | 0.00 | 25 | 1016.5 |
| 20260508164608 | 21 | 201 | 3.2 | 11.3 | 0.00 | 0.00 | 0.00 | 28 | 1016.7 |
| 20260508164107 | 21 | 159 | 3.2 | 11.3 | 0.00 | 0.00 | 0.00 | 27 | 1016.8 |
| 20260508163601 | 22 | 104 | 3.2 | 11.3 | 0.00 | 0.00 | 0.00 | 29 | 1016.8 |
| 20260508163101 | 22 | 146 | 1.6 | 9.7 | 0.00 | 0.00 | 0.00 | 29 | 1016.8 |
| 20260508162601 | 22 | 245 | 1.6 | 4.8 | 0.00 | 0.00 | 0.00 | 28 | 1016.9 |
| 20260508162101 | 22 | 109 | 1.6 | 8.0 | 0.00 | 0.00 | 0.00 | 29 | 1016.9 |
| 20260508161601 | 21 | 130 | 1.6 | 8.0 | 0.00 | 0.00 | 0.00 | 29 | 1016.9 |
| 20260508161100 | 21 | 146 | 1.6 | 6.4 | 0.00 | 0.00 | 0.00 | 31 | 1017.0 |
| 20260508160601 | 21 | 182 | 1.6 | 6.4 | 0.00 | 0.00 | 0.00 | 29 | 1017.1 |
| 20260508155600 | 21 | 153 | 1.6 | 8.0 | 0.00 | 0.00 | 0.00 | 29 | 1017.4 |
| 20260508155101 | 21 | 136 | 1.6 | 8.0 | 0.00 | 0.00 | 0.00 | 29 | 1017.5 |
| 20260508154558 | 21 | 147 | 1.6 | 6.4 | 0.00 | 0.00 | 0.00 | 27 | 1017.5 |
| 20260508153548 | 21 | 153 | 1.6 | 4.8 | 0.00 | 0.00 | 0.00 | 26 | 1017.6 |
| 20260508153040 | 21 | 153 | 1.6 | 6.4 | 0.00 | 0.00 | 0.00 | 26 | 1017.7 |
| 20260508152540 | 21 | 153 | 1.6 | 6.4 | 0.00 | 0.00 | 0.00 | 28 | 1017.7 |
| 20260508152040 | 20 | 152 | 1.6 | 4.8 | 0.00 | 0.00 | 0.00 | 29 | 1017.7 |
| 20260508151539 | 20 | 150 | 1.6 | 4.8 | 0.00 | 0.00 | 0.00 | 31 | 1017.8 |
| 20260508151037 | 20 | 157 | 1.6 | 4.8 | 0.00 | 0.00 | 0.00 | 27 | 1017.8 |
| 20260508150535 | 20 | 185 | 1.6 | 4.8 | 0.00 | 0.00 | 0.00 | 29 | 1017.8 |
| 20260508150035 | 19 | 184 | 1.6 | 4.8 | 0.00 | 0.00 | 0.00 | 27 | 1017.8 |
| 20260508145535 | 19 | 169 | 1.6 | 6.4 | 0.00 | 0.00 | 0.00 | 30 | 1017.8 |
| 20260508144529 | 18 | 133 | 1.6 | 4.8 | 0.00 | 0.00 | 0.00 | 31 | 1017.8 |
| 20260508144029 | 18 | 70 | 1.6 | 4.8 | 0.00 | 0.00 | 0.00 | 35 | 1017.8 |
| 20260508143529 | 17 | 161 | 1.6 | 6.4 | 0.00 | 0.00 | 0.00 | 32 | 1017.7 |
| 20260508143035 | 17 | 161 | 1.6 | 6.4 | 0.00 | 0.00 | 0.00 | 33 | 1017.7 |
| 20260508142529 | 16 | 285 | 1.6 | 4.8 | 0.00 | 0.00 | 0.00 | 34 | 1017.8 |
| 20260508142029 | 16 | 211 | 0.0 | 3.2 | 0.00 | 0.00 | 0.00 | 36 | 1017.8 |
| 20260508141530 | 15 | 211 | 1.6 | 3.2 | 0.00 | 0.00 | 0.00 | 39 | 1017.8 |
| 20260508140529 | 14 | 219 | 0.0 | 8.0 | 0.00 | 0.00 | 0.00 | 41 | 1017.8 |
| 20260508140029 | 13 | 244 | 0.0 | 4.8 | 0.00 | 0.00 | 0.00 | 43 | 1017.9 |
| 20260508135527 | 13 | 310 | 0.0 | 0.0 | 0.00 | 0.00 | 0.00 | 44 | 1017.8 |
| 20260508135021 | 12 | 300 | 0.0 | 1.6 | 0.00 | 0.00 | 0.00 | 47 | 1017.8 |
| 20260508134515 | 12 | 316 | 0.0 | 1.6 | 0.00 | 0.00 | 0.00 | 48 | 1017.7 |
| 20260508134010 | 11 | 339 | 0.0 | 1.6 | 0.00 | 0.00 | 0.00 | 49 | 1017.7 |
| 20260508133008 | 10 | 245 | 0.0 | 0.0 | 0.00 | 0.00 | 0.00 | 53 | 1017.6 |
| 20260508132004 | 10 | 245 | 0.0 | 0.0 | 0.00 | 0.00 | 0.00 | 54 | 1017.6 |
| 20260508131502 | 9 | 245 | 0.0 | 0.0 | 0.00 | 0.00 | 0.00 | 54 | 1017.7 |
| 20260508131003 | 9 | 246 | 0.0 | 0.0 | 0.00 | 0.00 | 0.00 | 54 | 1017.7 |
| 20260508130501 | 8 | 246 | 0.0 | 0.0 | 0.00 | 0.00 | 0.00 | 54 | 1017.7 |
| 20260508130007 | 8 | 246 | 0.0 | 0.0 | 0.00 | 0.00 | 0.00 | 54 | 1017.7 |
| 20260508125502 | 8 | 246 | 0.0 | 0.0 | 0.00 | 0.00 | 0.00 | 55 | 1017.6 |
| 20260508125001 | 8 | 246 | 0.0 | 0.0 | 0.00 | 0.00 | 0.00 | 55 | 1017.6 |
| 20260508124501 | 7 | 246 | 0.0 | 0.0 | 0.00 | 0.00 | 0.00 | 55 | 1017.6 |
| 20260508124001 | 7 | 246 | 0.0 | 0.0 | 0.00 | 0.00 | 0.00 | 54 | 1017.6 |
| 20260508123000 | 6 | 246 | 0.0 | 0.0 | 0.00 | 0.00 | 0.00 | 53 | 1017.7 |
| 20260508122501 | 6 | 273 | 0.0 | 0.0 | 0.00 | 0.00 | 0.00 | 53 | 1017.7 |
| 20260508122001 | 6 | 275 | 0.0 | 0.0 | 0.00 | 0.00 | 0.00 | 54 | 1017.7 |
| 20260508121500 | 6 | 275 | 0.0 | 0.0 | 0.00 | 0.00 | 0.00 | 54 | 1017.6 |
| 20260508121001 | 5 | 275 | 0.0 | 0.0 | 0.00 | 0.00 | 0.00 | 54 | 1017.6 |
| 20260508120457 | 5 | 275 | 0.0 | 0.0 | 0.00 | 0.00 | 0.00 | 55 | 1017.6 |
| 20260508115957 | 5 | 275 | 0.0 | 0.0 | 0.00 | 0.00 | 0.00 | 55 | 1017.7 |
| 20260508114956 | 5 | 275 | 0.0 | 0.0 | 0.00 | 0.00 | 0.00 | 56 | 1017.6 |
| 20260508114455 | 4 | 275 | 0.0 | 0.0 | 0.00 | 0.00 | 0.00 | 57 | 1017.5 |
| 20260508113953 | 4 | 275 | 0.0 | 0.0 | 0.00 | 0.00 | 0.00 | 57 | 1017.4 |
| 20260508113452 | 4 | 275 | 0.0 | 0.0 | 0.00 | 0.00 | 0.00 | 58 | 1017.4 |
| 20260508112949 | 3 | 275 | 0.0 | 0.0 | 0.00 | 0.00 | 0.00 | 59 | 1017.2 |
| 20260508112447 | 3 | 275 | 0.0 | 0.0 | 0.00 | 0.00 | 0.00 | 60 | 1017.2 |
| 20260508111945 | 3 | 275 | 0.0 | 0.0 | 0.00 | 0.00 | 0.00 | 61 | 1017.1 |
| 20260508111445 | 3 | 275 | 0.0 | 0.0 | 0.00 | 0.00 | 0.00 | 61 | 1017.1 |
| 20260508110443 | 3 | 275 | 0.0 | 0.0 | 0.00 | 0.00 | 0.00 | 61 | 1017.1 |
| 20260508105940 | 3 | 275 | 0.0 | 0.0 | 0.00 | 0.00 | 0.00 | 61 | 1017.0 |
| 20260508104937 | 3 | 275 | 0.0 | 0.0 | 0.00 | 0.00 | 0.00 | 61 | 1016.9 |
| 20260508104435 | 3 | 275 | 0.0 | 0.0 | 0.00 | 0.00 | 0.00 | 61 | 1016.8 |
| 20260508103933 | 3 | 275 | 0.0 | 0.0 | 0.00 | 0.00 | 0.00 | 61 | 1016.8 |
| 20260508103433 | 3 | 275 | 0.0 | 0.0 | 0.00 | 0.00 | 0.00 | 61 | 1016.7 |
| 20260508102933 | 3 | 275 | 0.0 | 0.0 | 0.00 | 0.00 | 0.00 | 61 | 1016.8 |
| 20260508102437 | 3 | 275 | 0.0 | 0.0 | 0.00 | 0.00 | 0.00 | 61 | 1016.8 |
| 20260508101936 | 3 | 275 | 0.0 | 0.0 | 0.00 | 0.00 | 0.00 | 61 | 1016.7 |
| 20260508101434 | 3 | 275 | 0.0 | 0.0 | 0.00 | 0.00 | 0.00 | 61 | 1016.6 |
| 20260508100922 | 3 | 275 | 0.0 | 0.0 | 0.00 | 0.00 | 0.00 | 61 | 1016.7 |
| 20260508100415 | 3 | 275 | 0.0 | 0.0 | 0.00 | 0.00 | 0.00 | 61 | 1016.6 |
| 20260508095921 | 3 | 275 | 0.0 | 0.0 | 0.00 | 0.00 | 0.00 | 61 | 1016.6 |
| 20260508095415 | 3 | 275 | 0.0 | 0.0 | 0.00 | 0.00 | 0.00 | 61 | 1016.6 |
| 20260508094915 | 3 | 275 | 0.0 | 0.0 | 0.00 | 0.00 | 0.00 | 61 | 1016.7 |
| 20260508093910 | 3 | 275 | 0.0 | 0.0 | 0.00 | 0.00 | 0.00 | 61 | 1016.8 |
| 20260508093412 | 3 | 275 | 0.0 | 0.0 | 0.00 | 0.00 | 0.00 | 61 | 1016.7 |
| 20260508092911 | 3 | 275 | 0.0 | 0.0 | 0.00 | 0.00 | 0.00 | 61 | 1016.6 |
| 20260508092411 | 3 | 275 | 0.0 | 0.0 | 0.00 | 0.00 | 0.00 | 61 | 1016.7 |
| 20260508091411 | 3 | 275 | 0.0 | 0.0 | 0.00 | 0.00 | 0.00 | 61 | 1016.6 |
| 20260508090911 | 3 | 275 | 0.0 | 0.0 | 0.00 | 0.00 | 0.00 | 61 | 1016.7 |
| 20260508090409 | 3 | 275 | 0.0 | 0.0 | 0.00 | 0.00 | 0.00 | 61 | 1016.7 |
| 20260508085906 | 3 | 275 | 0.0 | 0.0 | 0.00 | 0.00 | 0.00 | 61 | 1016.7 |
| 20260508085407 | 4 | 275 | 0.0 | 0.0 | 0.00 | 0.00 | 0.00 | 61 | 1016.7 |
| 20260508084913 | 4 | 275 | 0.0 | 0.0 | 0.00 | 0.00 | 0.00 | 61 | 1016.7 |
| 20260508084407 | 4 | 275 | 0.0 | 0.0 | 0.00 | 0.00 | 0.00 | 61 | 1016.8 |
| 20260508083907 | 4 | 275 | 0.0 | 0.0 | 0.00 | 0.00 | 0.00 | 61 | 1016.7 |
| 20260508082906 | 4 | 275 | 0.0 | 0.0 | 0.00 | 0.00 | 0.00 | 61 | 1016.7 |
| 20260508082407 | 4 | 275 | 0.0 | 0.0 | 0.00 | 0.00 | 0.00 | 61 | 1016.7 |
| 20260508081407 | 4 | 275 | 0.0 | 0.0 | 0.00 | 0.00 | 0.00 | 61 | 1016.7 |
| 20260508080407 | 4 | 275 | 0.0 | 0.0 | 0.00 | 0.00 | 0.00 | 61 | 1016.7 |
| 20260508075905 | 4 | 275 | 0.0 | 0.0 | 0.00 | 0.00 | 0.00 | 61 | 1016.7 |
| 20260508075405 | 4 | 275 | 0.0 | 0.0 | 0.00 | 0.00 | 0.00 | 61 | 1016.7 |
| 20260508074902 | 4 | 275 | 0.0 | 0.0 | 0.00 | 0.00 | 0.00 | 61 | 1016.7 |
| 20260508074409 | 4 | 275 | 0.0 | 0.0 | 0.00 | 0.00 | 0.00 | 61 | 1016.7 |
| 20260508073908 | 4 | 275 | 0.0 | 0.0 | 0.00 | 0.00 | 0.00 | 62 | 1016.7 |
| 20260508073407 | 4 | 275 | 0.0 | 0.0 | 0.00 | 0.00 | 0.00 | 61 | 1016.7 |
| 20260508072908 | 4 | 275 | 0.0 | 0.0 | 0.00 | 0.00 | 0.00 | 61 | 1016.8 |
| 20260508072403 | 5 | 275 | 0.0 | 0.0 | 0.00 | 0.00 | 0.00 | 61 | 1016.8 |
| 20260508071400 | 5 | 275 | 0.0 | 0.0 | 0.00 | 0.00 | 0.00 | 61 | 1016.8 |
| 20260508070901 | 5 | 275 | 0.0 | 0.0 | 0.00 | 0.00 | 0.00 | 61 | 1016.7 |
| 20260508070400 | 5 | 275 | 0.0 | 0.0 | 0.00 | 0.00 | 0.00 | 61 | 1016.7 |
| 20260508065901 | 5 | 275 | 0.0 | 0.0 | 0.00 | 0.00 | 0.00 | 61 | 1016.7 |
| 20260508065401 | 5 | 275 | 0.0 | 0.0 | 0.00 | 0.00 | 0.00 | 61 | 1016.7 |
| 20260508064901 | 5 | 275 | 0.0 | 0.0 | 0.00 | 0.00 | 0.00 | 61 | 1016.7 |
| 20260508064401 | 5 | 275 | 0.0 | 0.0 | 0.00 | 0.00 | 0.00 | 61 | 1016.7 |
| 20260508063857 | 5 | 275 | 0.0 | 0.0 | 0.00 | 0.00 | 0.00 | 61 | 1016.7 |
| 20260508063357 | 5 | 275 | 0.0 | 0.0 | 0.00 | 0.00 | 0.00 | 61 | 1016.8 |
| 20260508062352 | 5 | 275 | 0.0 | 0.0 | 0.00 | 0.00 | 0.00 | 60 | 1016.7 |
| 20260508061851 | 5 | 275 | 0.0 | 0.0 | 0.00 | 0.00 | 0.00 | 60 | 1016.7 |
| 20260508061350 | 5 | 275 | 0.0 | 0.0 | 0.00 | 0.00 | 0.00 | 60 | 1016.6 |
| 20260508060851 | 5 | 275 | 0.0 | 0.0 | 0.00 | 0.00 | 0.00 | 60 | 1016.7 |
| 20260508060350 | 5 | 275 | 0.0 | 0.0 | 0.00 | 0.00 | 0.00 | 60 | 1016.8 |
| 20260508055851 | 5 | 275 | 0.0 | 0.0 | 0.00 | 0.00 | 0.00 | 60 | 1016.8 |
| 20260508055351 | 5 | 275 | 0.0 | 0.0 | 0.00 | 0.00 | 0.00 | 60 | 1016.9 |
| 20260508054851 | 5 | 275 | 0.0 | 0.0 | 0.00 | 0.00 | 0.00 | 60 | 1017.0 |
| 20260508054351 | 6 | 275 | 0.0 | 0.0 | 0.00 | 0.00 | 0.00 | 60 | 1017.1 |
| 20260508053349 | 6 | 275 | 0.0 | 0.0 | 0.00 | 0.00 | 0.00 | 60 | 1017.1 |
| 20260508052847 | 6 | 275 | 0.0 | 0.0 | 0.00 | 0.00 | 0.00 | 59 | 1017.1 |
| 20260508052347 | 6 | 275 | 0.0 | 0.0 | 0.00 | 0.00 | 0.00 | 59 | 1017.1 |
| 20260508051347 | 6 | 275 | 0.0 | 0.0 | 0.00 | 0.00 | 0.00 | 59 | 1017.1 |
| 20260508050847 | 6 | 275 | 0.0 | 0.0 | 0.00 | 0.00 | 0.00 | 59 | 1017.2 |
| 20260508050346 | 6 | 275 | 0.0 | 0.0 | 0.00 | 0.00 | 0.00 | 59 | 1017.1 |
| 20260508045846 | 6 | 275 | 0.0 | 0.0 | 0.00 | 0.00 | 0.00 | 59 | 1017.1 |
| 20260508045347 | 6 | 275 | 0.0 | 0.0 | 0.00 | 0.00 | 0.00 | 59 | 1017.1 |
| 20260508044847 | 6 | 275 | 0.0 | 0.0 | 0.00 | 0.00 | 0.00 | 59 | 1017.1 |
| 20260508044346 | 6 | 275 | 0.0 | 0.0 | 0.00 | 0.00 | 0.00 | 59 | 1017.1 |
| 20260508043846 | 6 | 275 | 0.0 | 0.0 | 0.00 | 0.00 | 0.00 | 59 | 1017.1 |
| 20260508043347 | 6 | 275 | 0.0 | 0.0 | 0.00 | 0.00 | 0.00 | 58 | 1017.1 |
| 20260508042853 | 6 | 275 | 0.0 | 1.6 | 0.00 | 0.00 | 0.00 | 58 | 1017.0 |
| 20260508042353 | 6 | 275 | 0.0 | 1.6 | 0.00 | 0.00 | 0.00 | 58 | 1017.0 |
| 20260508041852 | 6 | 275 | 0.0 | 1.6 | 0.00 | 0.00 | 0.00 | 58 | 1016.9 |
| 20260508041353 | 6 | 275 | 0.0 | 0.0 | 0.00 | 0.00 | 0.00 | 57 | 1017.0 |
| 20260508040849 | 7 | 275 | 0.0 | 0.0 | 0.00 | 0.00 | 0.00 | 56 | 1016.9 |
| 20260508040349 | 7 | 275 | 0.0 | 0.0 | 0.00 | 0.00 | 0.00 | 56 | 1016.9 |
| 20260508035847 | 7 | 275 | 0.0 | 0.0 | 0.00 | 0.00 | 0.00 | 55 | 1016.9 |
| 20260508035342 | 7 | 275 | 0.0 | 0.0 | 0.00 | 0.00 | 0.00 | 55 | 1017.0 |
| 20260508034840 | 7 | 275 | 0.0 | 0.0 | 0.00 | 0.00 | 0.00 | 56 | 1017.1 |
| 20260508032838 | 7 | 275 | 0.0 | 0.0 | 0.00 | 0.00 | 0.00 | 55 | 1017.0 |
| 20260508032336 | 8 | 275 | 0.0 | 0.0 | 0.00 | 0.00 | 0.00 | 54 | 1017.1 |
| 20260508031835 | 8 | 275 | 0.0 | 0.0 | 0.00 | 0.00 | 0.00 | 53 | 1017.2 |
| 20260508030836 | 8 | 275 | 0.0 | 0.0 | 0.00 | 0.00 | 0.00 | 53 | 1017.2 |
| 20260508030334 | 8 | 275 | 0.0 | 0.0 | 0.00 | 0.00 | 0.00 | 52 | 1017.2 |
| 20260508025834 | 8 | 275 | 0.0 | 0.0 | 0.00 | 0.00 | 0.00 | 52 | 1017.2 |
| 20260508025332 | 8 | 275 | 0.0 | 0.0 | 0.00 | 0.00 | 0.00 | 52 | 1017.1 |
| 20260508024837 | 8 | 275 | 0.0 | 0.0 | 0.00 | 0.00 | 0.00 | 52 | 1017.1 |
| 20260508024336 | 8 | 275 | 0.0 | 0.0 | 0.00 | 0.00 | 0.00 | 51 | 1017.0 |
| 20260508023834 | 9 | 275 | 0.0 | 0.0 | 0.00 | 0.00 | 0.00 | 50 | 1017.0 |
| 20260508023330 | 9 | 275 | 0.0 | 0.0 | 0.00 | 0.00 | 0.00 | 49 | 1017.1 |
| 20260508022828 | 9 | 275 | 0.0 | 0.0 | 0.00 | 0.00 | 0.00 | 48 | 1017.0 |
| 20260508022329 | 9 | 275 | 0.0 | 0.0 | 0.00 | 0.00 | 0.00 | 48 | 1017.0 |
| 20260508021828 | 10 | 275 | 0.0 | 0.0 | 0.00 | 0.00 | 0.00 | 48 | 1016.9 |
| 20260508021329 | 10 | 275 | 0.0 | 0.0 | 0.00 | 0.00 | 0.00 | 47 | 1016.9 |
| 20260508020829 | 10 | 275 | 0.0 | 0.0 | 0.00 | 0.00 | 0.00 | 46 | 1016.9 |
| 20260508015829 | 10 | 275 | 0.0 | 0.0 | 0.00 | 0.00 | 0.00 | 46 | 1016.7 |
| 20260508014828 | 11 | 275 | 0.0 | 0.0 | 0.00 | 0.00 | 0.00 | 45 | 1016.5 |
| 20260508014329 | 11 | 275 | 0.0 | 0.0 | 0.00 | 0.00 | 0.00 | 44 | 1016.4 |
| 20260508013829 | 11 | 275 | 0.0 | 0.0 | 0.00 | 0.00 | 0.00 | 43 | 1016.3 |
| 20260508013329 | 11 | 275 | 0.0 | 0.0 | 0.00 | 0.00 | 0.00 | 42 | 1016.3 |
| 20260508012828 | 11 | 275 | 0.0 | 0.0 | 0.00 | 0.00 | 0.00 | 41 | 1016.4 |
| 20260508012328 | 12 | 275 | 0.0 | 0.0 | 0.00 | 0.00 | 0.00 | 40 | 1016.3 |
| 20260508011827 | 12 | 275 | 0.0 | 0.0 | 0.00 | 0.00 | 0.00 | 39 | 1016.1 |
| 20260508011328 | 12 | 275 | 0.0 | 0.0 | 0.00 | 0.00 | 0.00 | 36 | 1016.1 |
| 20260508010824 | 13 | 275 | 0.0 | 0.0 | 0.00 | 0.00 | 0.00 | 35 | 1016.0 |
| 20260508005823 | 13 | 275 | 0.0 | 0.0 | 0.00 | 0.00 | 0.00 | 34 | 1015.9 |
| 20260508005324 | 13 | 275 | 0.0 | 0.0 | 0.00 | 0.00 | 0.00 | 34 | 1015.9 |
| 20260508004824 | 13 | 275 | 0.0 | 0.0 | 0.00 | 0.00 | 0.00 | 33 | 1015.9 |
| 20260508004324 | 14 | 275 | 0.0 | 0.0 | 0.00 | 0.00 | 0.00 | 33 | 1015.8 |
| 20260508002824 | 14 | 275 | 0.0 | 3.2 | 0.00 | 0.00 | 0.00 | 28 | 1015.7 |
| 20260508002319 | 14 | 275 | 0.0 | 4.8 | 0.00 | 0.00 | 0.00 | 27 | 1015.5 |
| 20260508001819 | 15 | 274 | 0.0 | 4.8 | 0.00 | 0.00 | 0.00 | 27 | 1015.4 |
| 20260508001320 | 15 | 274 | 1.6 | 6.4 | 0.00 | 0.00 | 0.00 | 28 | 1015.4 |
| 20260508000820 | 15 | 302 | 1.6 | 6.4 | 0.00 | 0.00 | 0.00 | 26 | 1015.4 |